Location: Six Mile Lake
(44.9000°N, 79.7170°W)
Time: 02:17:02
(UTC-04:00)

Max Valier Satellite - Pass Details

Date: 04 July 2022
Orbit: 474 x 491 km, 97.2° (Epoch: 09 August)

Event Time Altitude Azimuth Distance (km) Brightness Sun altitude
Rises 21:59:42 0° 205° (SSW) 2,555 ? -7.9°
Reaches altitude 10° 22:02:21 10° 227° (SW) 1,683 ? -8.3°
Maximum altitude 22:04:43 17° 268° (W) 1,331 ? -8.6°
Drops below altitude 10° 22:07:07 10° 309° (NW) 1,697 ? -8.9°
Sets 22:09:49 0° 331° (NNW) 2,588 ? -9.2°
